ONEWEB-0130 (47276 NORAD) Tracking and Keplerian Element Data
This shows tracking and keplerian element data for the satellite.
Feedback or suggestion? Click here.
Element | Value |
Catalog | 47276 |
Name | ONEWEB-0130 |
Epoch Orbit | 172 |
Epoch Day | 60.91667824 |
Epoch Year | 2021 |
RAAN | 16.1798 |
Inclination | 87.5862 |
Eccentricity | 0.0009743 |
Argument of Perigee | 23.7551 |
Mean Anonmoly | 2.4735 |
Mean Motion | 13.96740819 |
Decay Rate | -0.00023976 |
L1 | 1 47276U 20100U 21060.91667824 -.00023976 00000-0 -17353-1 0 9990 |
L2 | 2 47276 87.5862 16.1798 0009743 23.7551 2.4735 13.96740819 1721 |
Live tracking and technical data element details for ONEWEB-0130 (NORAD 47276). ONEWEB-0130 can be tracked NOW for your location showing map with azimuth and elevation plus other details from your city location.
Track the satellite on the map from your city or location and see movement details for azimuth, elevation, latitude, longitude, range, height, and movement on the map or in text.
IsCatalogInMostPopularTable: catalog: 47276, numindb: 25
Update: records affected: 1
GetName: 47276 ONEWEB-0130
Hit Count: updated at: Tue, 02 Mar 2021 13:01:00 GMT